Regional Weather Roundup
Issued by NWS

Home | Current Version | Previous Version | Text Only | Print | Product List | Glossary On
Versions: 1 2 3 4 5 6 7 8 9 10 11 12 13 14 15 16 17 18 19 20 21 22 23 24 25 26 27 28 29 30 31 32 33 34 35 36 37 38 39 40 41 42 43 44 45 46 47 48 49 50
000
ASUS43 KDTX 211210
RWRMI
MICHIGAN HOURLY REGIONAL WEATHER ROUNDUP
NATIONAL WEATHER SERVICE DETROIT/PONTIAC MI
ISSUED BY NATIONAL WEATHER SERVICE GRAND RAPIDS MI
800 AM EDT MON MAY 21 2018

NOTE: "FAIR" INDICATES FEW OR NO CLOUDS BELOW 12,000 FEET WITH NO
SIGNIFICANT WEATHER AND/OR OBSTRUCTION TO VISIBILITY.

MIZ047>049-052>055-059>063-066>070-074>076-081>083-211300-
SOUTHEAST LOWER MICHIGAN

CITY           SKY/WX    TMP DP  RH WIND       PRES   REMARKS
ADRIAN         CLOUDY    53  46  77 E10       30.23S
6HR MIN TEMP:  53; 6HR MAX TEMP:  56;

ALMA           FOG       48  48 100 N9        30.25R VSB 1/2
6HR MIN TEMP:  41; 6HR MAX TEMP:  48;

ANN ARBOR      FAIR      54  46  74 NE6       30.24R
BAD AXE        FAIR      44  44 100 CALM      30.27R
6HR MIN TEMP:  32; 6HR MAX TEMP:  45;

DETROIT CITY   FAIR      52  42  69 E9        30.26R
6HR MIN TEMP:  47; 6HR MAX TEMP:  52;

DETROIT        CLOUDY    54  42  64 E3        30.25R
6HR MIN TEMP:  50; 6HR MAX TEMP:  55;

FLINT          FAIR      49  48  97 E3        30.25R
6HR MIN TEMP:  43; 6HR MAX TEMP:  49;

GROSSE ILE     FAIR      53  46  78 NE8       30.25R
6HR MIN TEMP:  49; 6HR MAX TEMP:  53;

HILLSDALE      CLOUDY    54  50  87 E7        30.21R FOG
HOWELL         FAIR      51  50  96 E5        30.25R
6HR MIN TEMP:  46; 6HR MAX TEMP:  51;


CITY           SKY/WX    TMP DP  RH WIND       PRES   REMARKS
JACKSON        FAIR      56  52  86 E10       30.22S
6HR MIN TEMP:  54; 6HR MAX TEMP:  58;

LANSING        FAIR      53  51  93 E7        30.24R
6HR MIN TEMP:  46; 6HR MAX TEMP:  53;

MASON          FAIR      53  51  93 E5        30.24R
6HR MIN TEMP:  49; 6HR MAX TEMP:  53;

MONROE         FAIR      55  48  77 NE10      30.23S
6HR MIN TEMP:  48; 6HR MAX TEMP:  55;

MT. CLEMENS    PTSUNNY   49  46  91 NE7       30.24R
6HR MIN TEMP:  43; 6HR MAX TEMP:  49;

PONTIAC        PTSUNNY   51  48  89 E8        30.23R
6HR MIN TEMP:  46; 6HR MAX TEMP:  51;

PORT HOPE        N/A     50  46  86 CALM      30.25R
6HR MIN TEMP:  37; 6HR MAX TEMP:  51;

PORT HURON     FAIR      45  43  93 CALM      30.26R
TRI CITIES     FOG       49  49 100 E5        30.24S VSB 1/8
6HR MIN TEMP:  44; 6HR MAX TEMP:  49;

YPSILANTI      FAIR      55  45  68 E8        30.25R
6HR MIN TEMP:  51; 6HR MAX TEMP:  57;

$$
MIZ043>046-050>051-056>058-064>065-071>073-077>080-211300-
SOUTHWEST LOWER MICHIGAN

CITY           SKY/WX    TMP DP  RH WIND       PRES   REMARKS
BATTLE CREEK   FAIR      58  54  86 E9        30.20S
6HR MIN TEMP:  56; 6HR MAX TEMP:  58;

BENTON HARBOR  CLOUDY    58  56  93 E9        30.15S FOG
6HR MIN TEMP:  53; 6HR MAX TEMP:  58; 6HR PCP: TRACE;

BIG RAPIDS     FOG       47  46  98 CALM      30.22R VSB 3/4
6HR MIN TEMP:  42; 6HR MAX TEMP:  47;

COLDWATER      LGT RAIN  56  55  97 E8        30.21R
6HR MIN TEMP:  56; 6HR MAX TEMP:  58;

HOLLAND        CLOUDY    55  53  93 E10       30.20R FOG
6HR MIN TEMP:  51; 6HR MAX TEMP:  55;

GRAND RAPIDS   CLOUDY    53  51  93 E12       30.21R
6HR MIN TEMP:  50; 6HR MAX TEMP:  53;

KALAMAZOO      CLOUDY    58  55  90 VRB6      30.20S FOG
6HR MIN TEMP:  54; 6HR MAX TEMP:  58;

MARSHALL       CLOUDY    56  54  92 E8        30.21S
6HR MIN TEMP:  55; 6HR MAX TEMP:  57;

MOUNT PLEASANT CLOUDY    47  47 100 CALM      30.23R FOG
6HR MIN TEMP:  45; 6HR MAX TEMP:  48;

MUSKEGON       CLOUDY    53  49  86 E8        30.20S
6HR MIN TEMP:  48; 6HR MAX TEMP:  53;

STURGIS        CLOUDY    57  54  91 E12       30.19R FOG
6HR MIN TEMP:  57; 6HR MAX TEMP:  59;

$$
MIZ016>042-211300-
NORTHERN LOWER MICHIGAN

CITY           SKY/WX    TMP DP  RH WIND       PRES   REMARKS
ALPENA         FAIR      50  49  96 CALM      30.26S
6HR MIN TEMP:  37; 6HR MAX TEMP:  50;

BEAVER ISLAND  FAIR      48  40  74 CALM      30.25S
6HR MIN TEMP:  32; 6HR MAX TEMP:  48;

BELLAIRE       FAIR      44  43  97 CALM      30.25S
6HR MIN TEMP:  34; 6HR MAX TEMP:  44;

CADILLAC       FAIR      44  43  99 CALM      30.22S
CHARLEVOIX     FAIR      47  43  88 CALM      30.28S
6HR MIN TEMP:  38; 6HR MAX TEMP:  47;

GAYLORD        FAIR      48  46  93 CALM      30.25S
6HR MIN TEMP:  36; 6HR MAX TEMP:  48;

HOUGHTON LAKE  FOG       45  44  97 CALM      30.25R VSB 1/4
6HR MIN TEMP:  38; 6HR MAX TEMP:  46;

MANISTEE       FAIR      47  45  93 E6        30.21S
OSCODA         FAIR      48  46  93 CALM      30.25S
PELLSTON       FAIR      44  39  82 CALM      30.26S
6HR MIN TEMP:  32; 6HR MAX TEMP:  44;

TRAVERSE CITY  PTSUNNY   46  42  86 CALM      30.23S
6HR MIN TEMP:  37; 6HR MAX TEMP:  46;

LUDINGTON      FAIR      49  49 100 E3        30.20S
6HR MIN TEMP:  38; 6HR MAX TEMP:  49;

$$
MIZ007>008-015-211300-
EASTERN UPPER MICHIGAN

CITY           SKY/WX    TMP DP  RH WIND       PRES   REMARKS
KINROSS        FAIR      46  35  65 W3        30.25R
6HR MIN TEMP:  40; 6HR MAX TEMP:  47;

MACKINAC ISLAN FAIR      50  39  66 SW6       30.25S
6HR MIN TEMP:  41; 6HR MAX TEMP:  50;

NEWBERRY       FAIR      49  37  63 SW3       30.24S
6HR MIN TEMP:  37; 6HR MAX TEMP:  49;

S. S. MARIE    FAIR      48  36  63 CALM      30.24R
6HR MIN TEMP:  38; 6HR MAX TEMP:  48;

$$
MIZ004>006-011>014-085-211300-
CENTRAL UPPER MICHIGAN

CITY           SKY/WX    TMP DP  RH WIND       PRES   REMARKS
MANISTIQUE     FAIR      47  46  94 CALM      30.25S
6HR MIN TEMP:  32; 6HR MAX TEMP:  47;

ESCANABA       FAIR      46  37  71 CALM      30.24S
6HR MIN TEMP:  32; 6HR MAX TEMP:  46;

SAWYER-GWINN   SUNNY     43  32  65 CALM      30.23F
$$
MIZ001>003-009>011-084-211300-
WESTERN UPPER MICHIGAN

CITY           SKY/WX    TMP DP  RH WIND       PRES   REMARKS
IRON MOUNTAIN  FAIR      41  37  86 NW3       30.21F
6HR MIN TEMP:  33; 6HR MAX TEMP:  41;

HOUGHTON       FAIR      51  34  52 S5        30.20R
6HR MIN TEMP:  43; 6HR MAX TEMP:  57;

COPPER HARBOR    N/A     55  33  43 W3        30.19R
6HR MIN TEMP:  43; 6HR MAX TEMP:  55;

IRONWOOD       FAIR      51  31  46 VRB3      30.19F
6HR MIN TEMP:  35; 6HR MAX TEMP:  51;

$$

ABBREVIATIONS USED IN REMARKS
   TC - TEMPERATURE IN CELSIUS
  WCI - WIND CHILL INDEX
   HX - HEAT INDEX
  VSB - VISIBILITY





USA.gov is the U.S. government's official web portal to all federal, state and local government web resources and services.